CZ-3C DEB, 40817

Orbit data source: Space-Track

CZ-3C DEB, 40817 is space debris in HEO originally from a launch on Sun, 31 Oct 2010 UTC launched from the Xichang Space Center, China (XSC). Debris objects in space refer to the collection of defunct objects orbiting the Earth. Examples of debris include non-operational satellites, rocket bodies, and fragments generated from explosions, collisions, or faulty payload assembly.

Loading next visibility...
Identifier
40817, 2010-057AJ
Orbit
HEO
Last TLE update
3 days ago
Origin
Manufacturer
CALT
Mission
Spacecraft
Bus & Motor
Unknown
Mass
Unknown
Launch date (UTC)
2010-10-31 (15 years ago)
Launch vehicle
Unknown
Launch site
Xichang Space Center, China (XSC)
Object type
Payload
Rocket body
Debris
Shape & HBR
Unknown
Radar Cross Section
Medium (>0.1 m² and <1 m²)

Expand to show TLE details & history

TLE from 3 days ago
0 CZ-3C DEB
1 40817U 10057AJ  25179.13507455  .00000096  00000-0  44949-2 0  9994
2 40817  19.6051 279.1816 7176818 217.8867  59.1103  2.20022527 41506
Epoch: 2025-06-28T03:14Z
TLE epoch observation values (Epoch: 2025-06-28T03:14:30.441Z)
Latitude
0.00036°
Longitude
-45.82675°
Altitude
21,641.174 km
Speed
3.534 km/s
True Right ascension
18h 37m 06s
True Declination
0° 00' 01"
Sunlit
Object was in daylight at epoch
Visualization orbit readout
Latitude
7.18631°
Longitude
-26.27621°
Altitude
31,808.261 km
Speed
2.217 km/s
Apparent Right ascension
19h 47m 53s
Apparent Declination
1° 12' 43"
Sunlit
Object is in daylight
Visualization observer readout
Local Sidereal Time
20:45:56
Azimuth
202.499° SSW
Elevation
49.106°
Doppler factor
1
Orbital elements
Apogee altitude
36,520.375 km
Perigee altitude
672.663 km
Semi-major axis
24,974.656 km
Eccentricity
0.71768
Inclination
19.6051°
RAAN
279.1816°
Arg. of periapsis
217.8867°
True anomaly
Unknown
Mean anomaly
59.1103°
Eccentric anomaly
Unknown
Mean motion
0.54991 °/min
Orbital period
654.65 mins
BSTAR
0.0044949
Loading maneuver chart data...
Loading SW <> Apogee altitude chart data...
Loading historical data...
Loading historical data...
Loading historical data...
Loading historical data...
Loading historical data...
Loading historical data...
Loading historical data...

CZ-3C DEB Visibility forecast

Observer location: undefined°, undefined°

Span
Click to sort rows by Start time (UTC) header in descending order
Start Az.
Max El. time (UTC)
Max El. Az.
Max El.
End time (UTC)
End Az.
439 mins2025-07-01 09:07:41.981Z202.488° SSW2025-07-01 09:53:41.981Z211.704° SW37.433°2025-07-01 16:26:41.981Z154.647° SSE
295 mins2025-07-02 04:12:41.981Z177.831° S2025-07-02 09:07:41.981Z170.562° S40.289°2025-07-02 09:07:41.981Z170.562° S
|